TimeEST,TemperatureF,Dew PointF,Humidity,Sea Level PressureIn,VisibilityMPH,Wind Direction,Wind SpeedMPH,Gust SpeedMPH,PrecipitationIn,Events,Conditions,WindDirDegrees,DateUTC
12:06 AM,53.6,51.8,94,30.00,4.0,South,4.6,-,N/A,,Overcast,180,2012-12-10 05:06:00
12:36 AM,53.6,51.8,94,29.98,3.0,South,6.9,-,0.01,Rain,Light Rain,170,2012-12-10 05:36:00
12:54 AM,53.1,52.0,96,29.97,3.0,South,8.1,-,0.01,,Overcast,170,2012-12-10 05:54:00
1:01 AM,53.6,51.8,94,29.97,2.5,South,8.1,-,N/A,,Overcast,180,2012-12-10 06:01:00
1:21 AM,53.6,51.8,94,29.96,3.0,South,6.9,-,N/A,,Overcast,180,2012-12-10 06:21:00
1:50 AM,53.6,51.8,94,29.95,4.0,SSW,6.9,-,0.01,Rain,Light Rain,210,2012-12-10 06:50:00
1:54 AM,54.0,52.0,93,29.95,4.0,SSW,6.9,-,0.01,Rain,Light Rain,210,2012-12-10 06:54:00
2:11 AM,53.6,51.8,94,29.94,3.0,South,6.9,-,0.03,Rain,Heavy Rain,180,2012-12-10 07:11:00
2:40 AM,53.6,51.8,94,29.93,7.0,South,5.8,-,0.06,,Overcast,180,2012-12-10 07:40:00
3:23 AM,53.6,51.8,94,29.91,10.0,SSW,9.2,-,N/A,,Overcast,210,2012-12-10 08:23:00
3:33 AM,53.6,51.8,94,29.91,10.0,SSW,5.8,-,0.00,Rain,Light Rain,210,2012-12-10 08:33:00
3:54 AM,54.0,52.0,93,29.91,9.0,SSW,6.9,-,0.00,,Overcast,200,2012-12-10 08:54:00
4:54 AM,54.0,52.0,93,29.88,8.0,South,6.9,-,N/A,,Overcast,180,2012-12-10 09:54:00
5:10 AM,53.6,53.6,100,29.87,8.0,South,5.8,-,N/A,,Overcast,190,2012-12-10 10:10:00
5:54 AM,55.0,54.0,96,29.87,0.5,South,8.1,-,N/A,,Overcast,190,2012-12-10 10:54:00
6:54 AM,55.0,54.0,96,29.85,0.5,South,10.4,-,N/A,,Overcast,190,2012-12-10 11:54:00
7:54 AM,55.9,54.0,93,29.83,0.5,South,10.4,-,N/A,,Overcast,190,2012-12-10 12:54:00
8:54 AM,57.0,55.0,93,29.82,2.0,SSW,8.1,-,N/A,,Overcast,200,2012-12-10 13:54:00
9:20 AM,57.2,55.4,94,29.80,0.5,South,12.7,18.4,0.05,Fog-Rain,Heavy Rain,170,2012-12-10 14:20:00
9:49 AM,57.2,55.4,94,29.80,10.0,South,10.4,-,0.40,,Overcast,180,2012-12-10 14:49:00
9:54 AM,57.0,55.9,96,29.80,10.0,South,10.4,-,0.40,,Overcast,180,2012-12-10 14:54:00
10:07 AM,57.2,55.4,94,29.80,2.5,South,9.2,-,N/A,,Overcast,190,2012-12-10 15:07:00
10:47 AM,57.2,55.4,94,29.78,1.5,South,10.4,-,N/A,,Overcast,190,2012-12-10 15:47:00
10:54 AM,57.9,55.9,93,29.78,1.0,South,10.4,19.6,N/A,,Overcast,190,2012-12-10 15:54:00
11:54 AM,60.1,59.0,96,29.74,3.0,SSE,10.4,-,N/A,,Overcast,160,2012-12-10 16:54:00
12:37 PM,60.8,57.2,88,29.70,3.0,SSW,11.5,18.4,N/A,,Overcast,210,2012-12-10 17:37:00
12:54 PM,61.0,59.0,93,29.69,10.0,SSW,6.9,-,N/A,,Overcast,200,2012-12-10 17:54:00
1:11 PM,60.8,57.2,88,29.68,10.0,South,6.9,-,N/A,,Overcast,180,2012-12-10 18:11:00
1:54 PM,60.1,57.9,93,29.66,10.0,South,9.2,-,N/A,,Overcast,180,2012-12-10 18:54:00
2:28 PM,60.8,57.2,88,29.64,10.0,South,9.2,-,N/A,,Overcast,190,2012-12-10 19:28:00
2:54 PM,60.1,57.9,93,29.64,10.0,SSW,8.1,-,N/A,,Overcast,200,2012-12-10 19:54:00
3:17 PM,60.8,59.0,94,29.63,10.0,SSW,6.9,-,N/A,,Overcast,200,2012-12-10 20:17:00
3:49 PM,60.8,59.0,94,29.63,10.0,WSW,3.5,-,N/A,,Overcast,240,2012-12-10 20:49:00
3:54 PM,61.0,59.0,93,29.62,10.0,SSW,3.5,-,N/A,,Overcast,200,2012-12-10 20:54:00
4:54 PM,59.0,57.9,96,29.59,2.0,SSE,5.8,-,N/A,,Mostly Cloudy,160,2012-12-10 21:54:00
5:19 PM,59.0,57.2,94,29.61,0.5,SSE,4.6,-,N/A,,Overcast,160,2012-12-10 22:19:00
5:54 PM,57.9,57.0,97,29.61,0.5,South,6.9,-,N/A,,Overcast,180,2012-12-10 22:54:00
6:52 PM,57.2,57.2,100,29.61,3.0,South,9.2,-,N/A,,Overcast,190,2012-12-10 23:52:00
6:54 PM,57.9,57.0,97,29.61,3.0,South,9.2,-,N/A,,Overcast,190,2012-12-10 23:54:00
7:54 PM,59.0,57.0,93,29.60,3.0,SSW,8.1,-,N/A,,Mostly Cloudy,200,2012-12-11 00:54:00
8:01 PM,59.0,57.2,94,29.61,3.0,SSW,6.9,-,N/A,,Scattered Clouds,200,2012-12-11 01:01:00
8:54 PM,59.0,57.0,93,29.61,3.0,South,5.8,-,N/A,,Mostly Cloudy,180,2012-12-11 01:54:00
9:54 PM,57.9,55.9,93,29.60,3.0,SSW,6.9,-,N/A,,Mostly Cloudy,200,2012-12-11 02:54:00
10:54 PM,57.0,55.0,93,29.61,10.0,SW,5.8,-,N/A,,Partly Cloudy,220,2012-12-11 03:54:00
11:54 PM,57.9,55.9,93,29.61,10.0,SW,6.9,-,N/A,,Mostly Cloudy,220,2012-12-11 04:54:00